Weather History for Breckenridge, TX

Change the Weather History Date:

Wednesday, February 26, 2014

  Actual Average (KABI) Record (KABI)
Temperature  
Mean Temperature 35 °F 51 °F  
Max Temperature 42 °F 63 °F 93 °F (2009)
Min Temperature 28 °F 39 °F 16 °F (1891)
Degree Days  
Heating Degree Days 30 14  
Month to date heating degree days 437  
Since 1 July heating degree days 2106  
Cooling Degree Days 0 0  
Month to date cooling degree days 0  
Year to date cooling degree days 1  
Moisture  
Dew Point 15 °F    
Average Humidity 46    
Maximum Humidity 63    
Minimum Humidity 29    
Precipitation  
Precipitation 0.00 in 0.05 in 1.61 in (1903)
Month to date precipitation 1.25  
Year to date precipitation 2.27  
Sea Level Pressure  
Sea Level Pressure 30.25 in    
Wind  
Wind Speed 13 mph (North)    
Max Wind Speed 24 mph    
Max Gust Speed 33 mph    
Visibility 10 miles    
Events      
T = Trace of Precipitation, MM = Missing Value Source: NWS Daily Summary

Daily Weather History Graph

Daily Weather History Graph

Search for Another Location

Airport:

Trip Planner

Search our weather history database for the weather conditions in past years. The results will help you decide how hot, cold, wet, or windy it might be!

Date:

Astronomy

Feb. 26, 2014 Rise Set
Actual Time 7:06 AM CST 6:30 PM CST
Civil Twilight 6:41 AM CST 6:55 PM CST
Nautical Twilight 6:13 AM CST 7:23 PM CST
Astronomical Twilight 5:44 AM CST 7:52 PM CST
Moon 4:47 AM CST (2/26) 3:52 PM CST (2/26)
Length of Visible Light 12h 13m
Length of Day
11h 23m
Waning Crescent, 10% of the Moon is Illuminated
Feb 26
Waning Crescent
Mar 1
New
Mar 8
First Quarter
Mar 16
Full
Mar 23
Last Quarter

Hourly Weather History & Observations

Time (CST) Temp. Windchill Dew Point Humidity Pressure Visibility Wind Dir Wind Speed Gust Speed Precip Events Conditions
12:10 AM 41.0 °F 33.1 °F 28.4 °F 61% 30.20 in 10.0 mi NNE 15.0 mph 23.0 mph N/A   Overcast
12:30 AM 41.0 °F 33.1 °F 28.2 °F 60% 30.21 in 10.0 mi North 15.0 mph 23.0 mph N/A   Overcast
12:50 AM 41.0 °F 33.9 °F 28.0 °F 60% 30.21 in 10.0 mi NNE 12.7 mph 19.6 mph N/A   Overcast
1:10 AM 41.4 °F 34.7 °F 26.8 °F 56% 30.23 in 10.0 mi NNE 11.5 mph - N/A   Overcast
1:30 AM 41.9 °F 34.0 °F 24.3 °F 50% 30.23 in 10.0 mi NNE 16.1 mph 24.2 mph N/A   Overcast
1:50 AM 41.9 °F 33.7 °F 23.5 °F 48% 30.24 in 10.0 mi NNE 17.3 mph 27.6 mph N/A   Overcast
2:10 AM 38.8 °F 29.1 °F 21.9 °F 51% 30.25 in 10.0 mi NNE 19.6 mph 31.1 mph N/A   Overcast
2:30 AM 36.9 °F 26.2 °F 21.9 °F 55% 30.27 in 10.0 mi North 20.7 mph 33.4 mph N/A   Overcast
2:50 AM 35.4 °F 23.5 °F 21.6 °F 57% 30.26 in 10.0 mi NNE 24.2 mph 31.1 mph N/A   Overcast
3:10 AM 34.3 °F 22.6 °F 21.4 °F 59% 30.27 in 10.0 mi NNE 21.9 mph 32.2 mph N/A   Overcast
3:30 AM 33.8 °F 22.5 °F 21.6 °F 61% 30.29 in 10.0 mi NNE 19.6 mph 28.8 mph N/A   Overcast
3:50 AM 32.7 °F 21.1 °F 21.2 °F 63% 30.29 in 10.0 mi NNE 19.6 mph 26.5 mph N/A   Overcast
4:10 AM 32.4 °F 20.3 °F 20.7 °F 62% 30.29 in 10.0 mi NNE 20.7 mph 27.6 mph N/A   Overcast
4:30 AM 32.0 °F 22.1 °F 20.3 °F 62% 30.29 in 10.0 mi NNE 13.8 mph 21.9 mph N/A   Overcast
4:50 AM 31.8 °F 20.2 °F 19.8 °F 61% 30.29 in 10.0 mi North 18.4 mph 26.5 mph N/A   Overcast
5:10 AM 31.1 °F 20.1 °F 19.2 °F 61% 30.30 in 10.0 mi North 16.1 mph 24.2 mph N/A   Overcast
5:30 AM 31.1 °F 20.5 °F 19.4 °F 62% 30.31 in 10.0 mi North 15.0 mph 19.6 mph N/A   Overcast
5:50 AM 31.1 °F 21.9 °F 19.4 °F 62% 30.32 in 10.0 mi North 11.5 mph 23.0 mph N/A   Overcast
6:10 AM 30.6 °F 19.0 °F 18.3 °F 60% 30.32 in 10.0 mi North 17.3 mph 24.2 mph N/A   Overcast
6:30 AM 30.0 °F 18.3 °F 17.2 °F 59% 30.34 in 10.0 mi North 17.3 mph 24.2 mph N/A   Overcast
6:50 AM 29.3 °F 19.1 °F 15.6 °F 57% 30.34 in 10.0 mi North 12.7 mph 24.2 mph N/A   Overcast
7:10 AM 29.1 °F 18.4 °F 14.9 °F 55% 30.34 in 10.0 mi North 13.8 mph 23.0 mph N/A   Mostly Cloudy
7:30 AM 28.4 °F 17.5 °F 14.0 °F 55% 30.34 in 10.0 mi North 13.8 mph 24.2 mph N/A   Scattered Clouds
7:50 AM 28.2 °F 17.2 °F 13.5 °F 54% 30.35 in 10.0 mi North 13.8 mph 23.0 mph N/A   Clear
8:10 AM 28.4 °F 16.2 °F 12.6 °F 52% 30.35 in 10.0 mi North 17.3 mph 20.7 mph N/A   Clear
8:30 AM 28.0 °F 17.0 °F 11.8 °F 51% 30.36 in 10.0 mi North 13.8 mph 26.5 mph N/A   Clear
8:50 AM 28.0 °F 15.7 °F 10.8 °F 48% 30.36 in 10.0 mi North 17.3 mph 23.0 mph N/A   Clear
9:10 AM 28.9 °F 16.5 °F 10.4 °F 46% 30.37 in 10.0 mi NNE 18.4 mph 24.2 mph N/A   Clear
9:30 AM 28.4 °F 16.6 °F 9.9 °F 46% 30.37 in 10.0 mi North 16.1 mph - N/A   Clear
9:50 AM 28.6 °F 18.7 °F 9.9 °F 46% 30.37 in 10.0 mi North 11.5 mph 19.6 mph N/A   Clear
10:10 AM 29.3 °F 19.1 °F 10.4 °F 45% 30.36 in 10.0 mi North 12.7 mph 18.4 mph N/A   Clear
10:30 AM 30.9 °F 22.2 °F 11.1 °F 44% 30.36 in 10.0 mi NNW 10.4 mph 17.3 mph N/A   Clear
10:50 AM 31.8 °F 23.9 °F 10.8 °F 42% 30.35 in 10.0 mi North 9.2 mph - N/A   Clear
11:10 AM 32.2 °F 24.4 °F 11.5 °F 42% 30.35 in 10.0 mi North 9.2 mph - N/A   Clear
11:30 AM 34.0 °F 25.5 °F 11.5 °F 39% 30.34 in 10.0 mi North 11.5 mph 16.1 mph N/A   Clear
11:50 AM 33.8 °F 25.8 °F 11.3 °F 39% 30.32 in 10.0 mi North 10.4 mph 16.1 mph N/A   Clear
12:10 PM 34.9 °F 26.6 °F 10.8 °F 37% 30.31 in 10.0 mi North 11.5 mph 17.3 mph N/A   Clear
12:30 PM 35.8 °F 27.8 °F 11.1 °F 36% 30.29 in 10.0 mi NNW 11.5 mph - N/A   Clear
12:50 PM 37.2 °F 29.6 °F 10.9 °F 34% 30.27 in 10.0 mi NNW 11.5 mph 16.1 mph N/A   Clear
1:10 PM 37.6 °F 30.5 °F 10.4 °F 33% 30.25 in 10.0 mi NNE 10.4 mph 18.4 mph N/A   Clear
1:30 PM 39.0 °F 31.8 °F 10.9 °F 32% 30.24 in 10.0 mi NNW 11.5 mph 16.1 mph N/A   Clear
1:50 PM 39.4 °F 34.5 °F 10.8 °F 31% 30.22 in 10.0 mi North 6.9 mph - N/A   Clear
2:10 PM 39.7 °F 33.2 °F 10.8 °F 30% 30.21 in 10.0 mi NE 10.4 mph 17.3 mph N/A   Clear
2:30 PM 40.5 °F 33.6 °F 11.5 °F 31% 30.20 in 10.0 mi North 11.5 mph - N/A   Clear
2:50 PM 41.0 °F 35.8 °F 10.9 °F 29% 30.20 in 10.0 mi North 8.1 mph 16.1 mph N/A   Clear
3:10 PM 41.2 °F 36.0 °F 11.7 °F 30% 30.18 in 10.0 mi North 8.1 mph - N/A   Clear
3:30 PM 42.1 °F 37.7 °F 12.0 °F 29% 30.18 in 10.0 mi North 6.9 mph - N/A   Clear
3:50 PM 41.2 °F 36.0 °F 11.8 °F 30% 30.17 in 10.0 mi NNE 8.1 mph - N/A   Clear
4:10 PM 42.1 °F 37.7 °F 11.7 °F 29% 30.17 in 10.0 mi NNE 6.9 mph 17.3 mph N/A   Clear
4:30 PM 41.9 °F 36.9 °F 11.8 °F 29% 30.16 in 10.0 mi NNE 8.1 mph 17.3 mph N/A   Clear
4:50 PM 41.9 °F 38.2 °F 12.0 °F 30% 30.16 in 10.0 mi NNE 5.8 mph - N/A   Clear
5:10 PM 41.2 °F 37.3 °F 11.7 °F 30% 30.16 in 10.0 mi NNE 5.8 mph - N/A   Clear
5:30 PM 41.0 °F 38.0 °F 11.7 °F 30% 30.16 in 10.0 mi North 4.6 mph - N/A   Clear
5:50 PM 40.3 °F 35.5 °F 11.3 °F 31% 30.16 in 10.0 mi North 6.9 mph - N/A   Clear
6:10 PM 39.6 °F 35.4 °F 11.5 °F 32% 30.16 in 10.0 mi North 5.8 mph - N/A   Clear
6:30 PM 38.7 °F 35.2 °F 11.3 °F 33% 30.16 in 10.0 mi North 4.6 mph - N/A   Clear
6:50 PM 37.8 °F 35.3 °F 12.0 °F 35% 30.17 in 10.0 mi North 3.5 mph - N/A   Clear
7:10 PM 37.4 °F 33.8 °F 12.2 °F 36% 30.17 in 10.0 mi North 4.6 mph - N/A   Clear
7:30 PM 37.4 °F 34.9 °F 12.0 °F 35% 30.17 in 10.0 mi North 3.5 mph - N/A   Clear
7:50 PM 36.9 °F 34.3 °F 12.2 °F 36% 30.18 in 10.0 mi NNE 3.5 mph - N/A   Clear
8:10 PM 35.6 °F - 12.4 °F 38% 30.18 in 10.0 mi Calm Calm - N/A   Clear
8:30 PM 34.9 °F - 13.1 °F 41% 30.18 in 10.0 mi Calm Calm - N/A   Clear
8:50 PM 34.9 °F - 12.9 °F 40% 30.18 in 10.0 mi Calm Calm - N/A   Clear
9:10 PM 34.5 °F - 13.1 °F 41% 30.18 in 10.0 mi Calm Calm - N/A   Clear
9:30 PM 32.9 °F - 14.2 °F 46% 30.18 in 10.0 mi Calm Calm - N/A   Clear
9:50 PM 31.1 °F - 14.2 °F 50% 30.18 in 10.0 mi Calm Calm - N/A   Clear
10:10 PM 30.7 °F - 14.4 °F 51% 30.18 in 10.0 mi Calm Calm - N/A   Clear
10:30 PM 31.1 °F - 14.9 °F 51% 30.17 in 10.0 mi Calm Calm - N/A   Clear
10:50 PM 29.1 °F 24.1 °F 14.9 °F 55% 30.17 in 10.0 mi SSE 4.6 mph - N/A   Clear
11:10 PM 28.9 °F 25.2 °F 16.7 °F 60% 30.16 in 10.0 mi South 3.5 mph - N/A   Clear
11:30 PM 29.7 °F 26.1 °F 18.0 °F 62% 30.16 in 10.0 mi South 3.5 mph - N/A   Clear
11:50 PM 29.3 °F - 18.0 °F 63% 30.16 in 10.0 mi Calm Calm - N/A   Clear